Time,TemperatureF,DewpointF,PressureIn,WindDirection,WindDirectionDegrees,WindSpeedMPH,WindSpeedGustMPH,Humidity,HourlyPrecipIn,Conditions,Clouds,dailyrainin,SoftwareType,DateUTC
2013-01-21 00:00:00,23.8,9.6,29.65,WNW,292,3.1,5.0,54,0.00,CLR,SCT,0.06,WeatherDisplay:10.37,2013-01-21 05:00:00,
2013-01-21 00:03:00,23.7,9.0,29.64,WNW,296,5.8,10.0,53,0.00,RA,SCT,0.00,WeatherDisplay:10.37,2013-01-21 05:03:00,
2013-01-21 00:08:00,23.7,8.2,29.64,West,264,5.6,8.1,51,0.00,RA,SCT,0.00,WeatherDisplay:10.37,2013-01-21 05:08:00,
2013-01-21 00:13:00,23.8,8.7,29.64,NW,313,5.1,6.9,52,0.00,CLR,SCT,0.00,WeatherDisplay:10.37,2013-01-21 05:13:00,
2013-01-21 00:18:00,23.6,8.9,29.64,WNW,288,5.6,9.2,53,0.00,CLR,SCT,0.00,WeatherDisplay:10.37,2013-01-21 05:18:00,
2013-01-21 00:23:00,23.5,9.3,29.64,West,278,4.0,6.9,54,0.00,CLR,SCT,0.00,WeatherDisplay:10.37,2013-01-21 05:23:00,
2013-01-21 00:28:00,23.4,9.2,29.64,WNW,300,4.9,6.9,54,0.00,CLR,SCT,0.00,WeatherDisplay:10.37,2013-01-21 05:28:00,
2013-01-21 00:34:00,23.4,8.8,29.64,NW,311,3.5,7.0,53,0.00,CLR,SCT,0.00,WeatherDisplay:10.37,2013-01-21 05:34:00,
2013-01-21 00:39:00,23.3,10.3,29.64,West,280,3.3,6.0,57,0.00,CLR,SCT,0.00,WeatherDisplay:10.37,2013-01-21 05:39:00,
2013-01-21 00:44:00,23.2,8.6,29.65,West,276,3.5,5.8,53,0.00,CLR,SCT,0.00,WeatherDisplay:10.37,2013-01-21 05:44:00,
2013-01-21 00:49:00,23.3,8.7,29.65,WNW,287,3.7,5.8,53,0.00,CLR,SCT,0.00,WeatherDisplay:10.37,2013-01-21 05:49:00,
2013-01-21 00:54:00,23.2,9.0,29.65,WNW,292,3.6,5.8,54,0.00,CLR,SCT,0.00,WeatherDisplay:10.37,2013-01-21 05:54:00,
2013-01-21 00:59:00,23.2,9.0,29.65,West,280,4.4,6.0,54,0.00,CLR,SCT,0.00,WeatherDisplay:10.37,2013-01-21 05:59:00,
2013-01-21 01:04:00,23.2,8.6,29.65,WSW,253,6.9,12.7,53,0.00,CLR,SCT,0.00,WeatherDisplay:10.37,2013-01-21 06:04:00,
2013-01-21 01:09:00,23.2,9.4,29.65,West,264,2.5,5.0,55,0.00,CLR,SCT,0.00,WeatherDisplay:10.37,2013-01-21 06:09:00,
2013-01-21 01:14:00,23.1,9.3,29.66,WNW,298,3.1,4.6,55,0.00,CLR,SCT,0.00,WeatherDisplay:10.37,2013-01-21 06:14:00,
2013-01-21 01:19:00,23.0,9.2,29.66,WNW,296,2.3,3.5,55,0.00,CLR,SCT,0.00,WeatherDisplay:10.37,2013-01-21 06:19:00,
2013-01-21 01:24:00,22.9,9.1,29.67,WNW,302,2.9,4.0,55,0.00,CLR,SCT,0.00,WeatherDisplay:10.37,2013-01-21 06:24:00,
2013-01-21 01:29:00,22.9,9.1,29.67,WSW,241,2.4,3.5,55,0.00,CLR,SCT,0.00,WeatherDisplay:10.37,2013-01-21 06:29:00,
2013-01-21 01:34:00,22.9,9.1,29.67,West,267,2.4,4.6,55,0.00,CLR,SCT,0.00,WeatherDisplay:10.37,2013-01-21 06:34:00,
2013-01-21 01:39:00,22.8,10.6,29.67,WNW,290,1.7,4.6,59,0.00,CLR,SCT,0.00,WeatherDisplay:10.37,2013-01-21 06:39:00,
2013-01-21 01:44:00,22.7,9.7,29.67,NW,306,1.4,2.3,57,0.00,CLR,SCT,0.00,WeatherDisplay:10.37,2013-01-21 06:44:00,
2013-01-21 01:49:00,22.7,9.7,29.67,SW,230,2.1,5.0,57,0.00,CLR,SCT,0.00,WeatherDisplay:10.37,2013-01-21 06:49:00,
2013-01-21 01:54:00,22.7,9.7,29.67,West,280,2.2,3.5,57,0.00,CLR,SCT,0.00,WeatherDisplay:10.37,2013-01-21 06:54:00,
2013-01-21 01:59:00,22.6,10.0,29.68,WSW,250,3.4,5.8,58,0.00,CLR,SCT,0.00,WeatherDisplay:10.37,2013-01-21 06:59:00,
2013-01-21 02:04:00,22.5,9.9,29.68,WNW,294,1.8,3.5,58,0.00,CLR,SCT,0.00,WeatherDisplay:10.37,2013-01-21 07:04:00,
2013-01-21 02:09:00,22.5,9.9,29.68,WNW,298,1.3,4.6,58,0.00,CLR,SCT,0.00,WeatherDisplay:10.37,2013-01-21 07:09:00,
2013-01-21 02:14:00,22.4,10.2,29.68,West,261,3.0,5.8,59,0.00,CLR,SCT,0.00,WeatherDisplay:10.37,2013-01-21 07:14:00,
2013-01-21 02:19:00,22.3,9.7,29.68,WSW,252,3.3,5.8,58,0.00,CLR,SCT,0.00,WeatherDisplay:10.37,2013-01-21 07:19:00,
2013-01-21 02:24:00,22.4,10.6,29.68,NW,312,1.5,3.5,60,0.00,CLR,SCT,0.00,WeatherDisplay:10.37,2013-01-21 07:24:00,
2013-01-21 02:29:00,22.1,10.3,29.68,WNW,302,3.3,6.9,60,0.00,CLR,SCT,0.00,WeatherDisplay:10.37,2013-01-21 07:29:00,
2013-01-21 02:34:00,22.1,9.9,29.68,West,279,5.7,6.9,59,0.00,CLR,SCT,0.00,WeatherDisplay:10.37,2013-01-21 07:34:00,
2013-01-21 02:39:00,22.2,10.0,29.69,West,271,1.3,3.5,59,0.00,CLR,SCT,0.00,WeatherDisplay:10.37,2013-01-21 07:39:00,
2013-01-21 02:44:00,22.1,10.3,29.69,WNW,288,1.9,4.6,60,0.00,CLR,SCT,0.00,WeatherDisplay:10.37,2013-01-21 07:44:00,
2013-01-21 02:49:00,22.0,10.6,29.69,NW,309,0.6,2.3,61,0.00,CLR,SCT,0.00,WeatherDisplay:10.37,2013-01-21 07:49:00,
2013-01-21 02:54:00,21.9,10.5,29.69,West,271,2.3,7.0,61,0.00,CLR,SCT,0.00,WeatherDisplay:10.37,2013-01-21 07:54:00,
2013-01-21 02:59:00,21.9,10.5,29.70,NW,304,1.2,5.8,61,0.00,CLR,SCT,0.00,WeatherDisplay:10.37,2013-01-21 07:59:00,
2013-01-21 03:04:00,21.8,10.4,29.70,WNW,287,1.4,3.5,61,0.00,CLR,SCT,0.00,WeatherDisplay:10.37,2013-01-21 08:04:00,
2013-01-21 03:09:00,21.8,10.4,29.70,NW,309,3.0,8.1,61,0.00,CLR,SCT,0.00,WeatherDisplay:10.37,2013-01-21 08:09:00,
2013-01-21 03:14:00,21.6,10.6,29.70,WNW,302,1.3,3.5,62,0.00,CLR,SCT,0.00,WeatherDisplay:10.37,2013-01-21 08:14:00,
2013-01-21 03:19:00,21.5,9.7,29.70,West,281,1.9,3.5,60,0.00,CLR,SCT,0.00,WeatherDisplay:10.37,2013-01-21 08:19:00,
2013-01-21 03:24:00,21.6,9.5,29.70,NNE,16,4.2,5.8,59,0.00,CLR,SCT,0.00,WeatherDisplay:10.37,2013-01-21 08:24:00,
2013-01-21 03:29:00,21.5,9.0,29.70,WNW,289,3.9,6.9,58,0.00,CLR,SCT,0.00,WeatherDisplay:10.37,2013-01-21 08:29:00,
2013-01-21 03:34:00,21.5,8.6,29.70,NW,304,1.6,4.6,57,0.00,CLR,SCT,0.00,WeatherDisplay:10.37,2013-01-21 08:34:00,
2013-01-21 03:39:00,21.3,8.0,29.70,WNW,287,1.6,5.0,56,0.00,CLR,SCT,0.00,WeatherDisplay:10.37,2013-01-21 08:39:00,
2013-01-21 03:44:00,21.3,7.6,29.70,NW,304,2.8,6.0,55,0.00,CLR,SCT,0.00,WeatherDisplay:10.37,2013-01-21 08:44:00,
2013-01-21 03:49:00,21.2,7.5,29.70,NNW,327,0.8,2.3,55,0.00,CLR,SCT,0.00,WeatherDisplay:10.37,2013-01-21 08:49:00,
2013-01-21 03:54:00,21.0,7.7,29.71,WNW,296,1.7,3.5,56,0.00,CLR,SCT,0.00,WeatherDisplay:10.37,2013-01-21 08:54:00,
2013-01-21 03:59:00,20.8,7.9,29.71,NNW,331,0.4,1.1,57,0.00,CLR,SCT,0.00,WeatherDisplay:10.37,2013-01-21 08:59:00,
2013-01-21 04:04:00,20.7,7.1,29.71,NW,309,0.6,2.3,55,0.00,CLR,SCT,0.00,WeatherDisplay:10.37,2013-01-21 09:04:00,
2013-01-21 04:09:00,20.7,7.1,29.71,NW,315,1.6,3.5,55,0.00,CLR,SCT,0.00,WeatherDisplay:10.37,2013-01-21 09:09:00,
2013-01-21 04:14:00,20.7,6.2,29.71,WNW,298,1.1,3.5,53,0.00,CLR,SCT,0.00,WeatherDisplay:10.37,2013-01-21 09:14:00,
2013-01-21 04:19:00,20.6,7.0,29.71,East,80,0.7,2.3,55,0.00,CLR,SCT,0.00,WeatherDisplay:10.37,2013-01-21 09:19:00,
2013-01-21 04:24:00,20.6,5.7,29.71,NW,322,2.4,3.5,52,0.00,CLR,SCT,0.00,WeatherDisplay:10.37,2013-01-21 09:24:00,
2013-01-21 04:29:00,20.6,6.6,29.71,NNW,335,1.9,3.5,54,0.00,CLR,SCT,0.00,WeatherDisplay:10.37,2013-01-21 09:29:00,
2013-01-21 04:34:00,20.6,5.7,29.72,North,5,0.9,3.5,52,0.00,CLR,SCT,0.00,WeatherDisplay:10.37,2013-01-21 09:34:00,
2013-01-21 04:39:00,20.5,5.6,29.71,WSW,256,0.6,4.0,52,0.00,CLR,SCT,0.00,WeatherDisplay:10.37,2013-01-21 09:39:00,
2013-01-21 04:44:00,20.7,5.4,29.72,NNW,338,2.2,5.8,51,0.00,CLR,SCT,0.00,WeatherDisplay:10.37,2013-01-21 09:44:00,
2013-01-21 04:49:00,20.5,5.6,29.72,NNW,343,0.0,0.0,52,0.00,CLR,SCT,0.00,WeatherDisplay:10.37,2013-01-21 09:49:00,
2013-01-21 04:54:00,20.4,5.5,29.72,NNW,344,1.0,2.3,52,0.00,CLR,SCT,0.00,WeatherDisplay:10.37,2013-01-21 09:54:00,
2013-01-21 04:59:00,20.2,5.4,29.72,NNW,343,1.3,2.3,52,0.00,CLR,SCT,0.00,WeatherDisplay:10.37,2013-01-21 09:59:00,
2013-01-21 05:04:00,20.2,5.8,29.72,NNW,343,1.1,2.3,53,0.00,CLR,SCT,0.00,WeatherDisplay:10.37,2013-01-21 10:04:00,
2013-01-21 05:09:00,20.1,5.7,29.72,NNW,343,1.4,2.3,53,0.00,CLR,SCT,0.00,WeatherDisplay:10.37,2013-01-21 10:09:00,
2013-01-21 05:14:00,20.1,5.7,29.72,NW,313,2.3,3.5,53,0.00,CLR,SCT,0.00,WeatherDisplay:10.37,2013-01-21 10:14:00,
2013-01-21 05:19:00,20.0,6.8,29.72,NNW,327,1.5,3.5,56,0.00,CLR,SCT,0.00,WeatherDisplay:10.37,2013-01-21 10:19:00,
2013-01-21 05:24:00,19.8,7.0,29.72,West,263,1.1,3.0,57,0.00,CLR,SCT,0.00,WeatherDisplay:10.37,2013-01-21 10:24:00,
2013-01-21 05:29:00,19.7,6.5,29.72,NW,321,2.0,4.0,56,0.00,CLR,SCT,0.00,WeatherDisplay:10.37,2013-01-21 10:29:00,
2013-01-21 05:34:00,19.7,6.1,29.71,WNW,301,1.5,2.3,55,0.00,CLR,SCT,0.00,WeatherDisplay:10.37,2013-01-21 10:34:00,
2013-01-21 05:39:00,19.6,6.8,29.71,WNW,292,3.8,6.9,57,0.00,CLR,SCT,0.00,WeatherDisplay:10.37,2013-01-21 10:39:00,
2013-01-21 05:44:00,19.6,6.8,29.71,NW,304,2.3,3.5,57,0.00,CLR,SCT,0.00,WeatherDisplay:10.37,2013-01-21 10:44:00,
2013-01-21 05:49:00,19.5,6.7,29.70,NW,309,1.1,3.5,57,0.00,CLR,SCT,0.00,WeatherDisplay:10.37,2013-01-21 10:49:00,
2013-01-21 05:54:00,19.5,6.7,29.71,WNW,283,0.4,1.1,57,0.00,CLR,SCT,0.00,WeatherDisplay:10.37,2013-01-21 10:54:00,
2013-01-21 05:59:00,19.5,6.3,29.71,NW,320,1.8,3.5,56,0.00,CLR,SCT,0.00,WeatherDisplay:10.37,2013-01-21 10:59:00,
2013-01-21 06:04:00,19.5,6.3,29.71,WNW,299,0.1,1.1,56,0.00,CLR,SCT,0.00,WeatherDisplay:10.37,2013-01-21 11:04:00,
2013-01-21 06:09:00,19.5,6.3,29.72,WNW,299,0.0,0.0,56,0.00,CLR,SCT,0.00,WeatherDisplay:10.37,2013-01-21 11:09:00,
2013-01-21 06:14:00,19.4,6.2,29.72,WNW,301,0.8,1.1,56,0.00,CLR,SCT,0.00,WeatherDisplay:10.37,2013-01-21 11:14:00,
2013-01-21 06:19:00,19.3,6.5,29.72,WNW,292,1.7,3.5,57,0.00,CLR,SCT,0.00,WeatherDisplay:10.37,2013-01-21 11:19:00,
2013-01-21 06:24:00,19.2,6.8,29.72,WNW,283,0.5,2.3,58,0.00,CLR,SCT,0.00,WeatherDisplay:10.37,2013-01-21 11:24:00,
2013-01-21 06:29:00,19.1,7.5,29.72,WNW,283,0.4,2.3,60,0.00,CLR,SCT,0.00,WeatherDisplay:10.37,2013-01-21 11:29:00,
2013-01-21 06:34:00,19.1,7.1,29.73,NE,42,0.4,2.0,59,0.00,CLR,SCT,0.00,WeatherDisplay:10.37,2013-01-21 11:34:00,
2013-01-21 06:39:00,19.2,7.9,29.73,ENE,74,0.4,1.1,61,0.00,CLR,SCT,0.00,WeatherDisplay:10.37,2013-01-21 11:39:00,
2013-01-21 06:44:00,19.1,8.2,29.73,ENE,74,0.1,1.1,62,0.00,CLR,SCT,0.00,WeatherDisplay:10.37,2013-01-21 11:44:00,
2013-01-21 06:49:00,19.1,7.5,29.73,ENE,74,0.9,1.1,60,0.00,CLR,SCT,0.00,WeatherDisplay:10.37,2013-01-21 11:49:00,
2013-01-21 06:54:00,19.1,8.2,29.73,NE,50,0.2,2.0,62,0.00,CLR,SCT,0.00,WeatherDisplay:10.37,2013-01-21 11:54:00,
2013-01-21 06:59:00,19.2,7.9,29.73,NE,50,0.0,0.0,61,0.00,CLR,SCT,0.00,WeatherDisplay:10.37,2013-01-21 11:59:00,
2013-01-21 07:04:00,19.3,7.7,29.73,NE,50,0.0,0.0,60,0.00,CLR,SCT,0.00,WeatherDisplay:10.37,2013-01-21 12:04:00,
2013-01-21 07:09:00,19.4,8.1,29.74,ENE,62,0.0,0.0,61,0.00,CLR,SCT,0.00,WeatherDisplay:10.37,2013-01-21 12:09:00,
2013-01-21 07:14:00,19.4,8.1,29.74,ENE,62,0.0,0.0,61,0.00,CLR,SCT,0.00,WeatherDisplay:10.37,2013-01-21 12:14:00,
2013-01-21 07:19:00,19.4,7.8,29.74,ENE,62,0.0,0.0,60,0.00,CLR,SCT,0.00,WeatherDisplay:10.37,2013-01-21 12:19:00,
2013-01-21 07:24:00,19.4,7.4,29.74,ENE,62,0.0,0.0,59,0.00,CLR,SCT,0.00,WeatherDisplay:10.37,2013-01-21 12:24:00,
2013-01-21 07:29:00,19.4,7.4,29.74,ENE,62,0.0,0.0,59,0.00,CLR,SCT,0.00,WeatherDisplay:10.37,2013-01-21 12:29:00,
2013-01-21 07:34:00,19.3,8.0,29.73,ENE,62,0.0,1.1,61,0.00,CLR,SCT,0.00,WeatherDisplay:10.37,2013-01-21 12:34:00,
2013-01-21 07:39:00,19.3,8.8,29.73,ENE,62,0.9,2.3,63,0.00,CLR,SCT,0.00,WeatherDisplay:10.37,2013-01-21 12:39:00,
2013-01-21 07:44:00,19.2,9.0,29.73,ENE,62,0.0,0.0,64,0.00,CLR,SCT,0.00,WeatherDisplay:10.37,2013-01-21 12:44:00,
2013-01-21 07:49:00,19.1,8.6,29.73,ENE,62,0.0,0.0,63,0.00,CLR,SCT,0.00,WeatherDisplay:10.37,2013-01-21 12:49:00,
2013-01-21 07:54:00,19.1,8.2,29.73,ENE,62,0.0,0.0,62,0.00,CLR,SCT,0.00,WeatherDisplay:10.37,2013-01-21 12:54:00,
2013-01-21 07:59:00,19.1,8.2,29.73,ENE,62,0.0,0.0,62,0.00,CLR,SCT,0.00,WeatherDisplay:10.37,2013-01-21 12:59:00,
2013-01-21 08:04:00,19.2,9.4,29.74,ENE,62,0.0,1.1,65,0.00,CLR,SCT,0.00,WeatherDisplay:10.37,2013-01-21 13:04:00,
2013-01-21 08:09:00,19.3,9.8,29.74,ENE,62,0.0,0.0,66,0.00,CLR,SCT,0.00,WeatherDisplay:10.37,2013-01-21 13:09:00,
2013-01-21 08:14:00,19.5,9.3,29.74,ENE,62,0.8,1.1,64,0.00,CLR,SCT,0.00,WeatherDisplay:10.37,2013-01-21 13:14:00,
2013-01-21 08:19:00,19.8,9.6,29.74,ENE,62,0.0,0.0,64,0.00,CLR,SCT,0.00,WeatherDisplay:10.37,2013-01-21 13:19:00,
2013-01-21 08:24:00,20.0,8.7,29.75,ENE,62,0.0,0.0,61,0.00,CLR,SCT,0.00,WeatherDisplay:10.37,2013-01-21 13:24:00,
2013-01-21 08:29:00,20.2,8.5,29.75,ENE,62,0.0,1.1,60,0.00,CLR,SCT,0.00,WeatherDisplay:10.37,2013-01-21 13:29:00,
2013-01-21 08:34:00,20.3,8.6,29.75,ENE,62,0.0,0.0,60,0.00,CLR,SCT,0.00,WeatherDisplay:10.37,2013-01-21 13:34:00,
2013-01-21 08:39:00,20.4,8.3,29.75,ENE,62,0.0,1.1,59,0.00,CLR,SCT,0.00,WeatherDisplay:10.37,2013-01-21 13:39:00,
2013-01-21 08:44:00,20.5,8.4,29.75,ENE,62,0.1,1.1,59,0.00,CLR,SCT,0.00,WeatherDisplay:10.37,2013-01-21 13:44:00,
2013-01-21 08:49:00,20.6,8.1,29.75,ENE,62,0.0,0.0,58,0.00,CLR,SCT,0.00,WeatherDisplay:10.37,2013-01-21 13:49:00,
2013-01-21 08:54:00,20.7,8.2,29.75,ENE,62,0.4,1.1,58,0.00,CLR,SCT,0.00,WeatherDisplay:10.37,2013-01-21 13:54:00,
2013-01-21 08:59:00,20.8,9.5,29.75,ENE,63,0.2,2.0,61,0.00,CLR,SCT,0.00,WeatherDisplay:10.37,2013-01-21 13:59:00,
2013-01-21 09:04:00,21.0,8.5,29.75,ENE,67,0.0,1.1,58,0.00,CLR,SCT,0.00,WeatherDisplay:10.37,2013-01-21 14:04:00,
2013-01-21 09:09:00,21.1,8.2,29.75,ENE,68,0.5,2.3,57,0.00,CLR,SCT,0.00,WeatherDisplay:10.37,2013-01-21 14:09:00,
2013-01-21 09:14:00,21.1,9.0,29.75,ENE,68,0.0,0.0,59,0.00,CLR,SCT,0.00,WeatherDisplay:10.37,2013-01-21 14:14:00,
2013-01-21 09:19:00,21.3,8.4,29.76,NE,46,0.8,2.3,57,0.00,CLR,SCT,0.00,WeatherDisplay:10.37,2013-01-21 14:19:00,
2013-01-21 09:24:00,21.5,9.4,29.75,NE,46,0.0,0.0,59,0.00,CLR,SCT,0.00,WeatherDisplay:10.37,2013-01-21 14:24:00,
2013-01-21 09:29:00,21.7,9.2,29.75,NE,46,0.3,1.1,58,0.00,CLR,SCT,0.00,WeatherDisplay:10.37,2013-01-21 14:29:00,
2013-01-21 09:34:00,21.9,9.4,29.75,NE,46,1.1,2.3,58,0.00,CLR,SCT,0.00,WeatherDisplay:10.37,2013-01-21 14:34:00,
2013-01-21 09:39:00,22.0,8.7,29.75,ENE,69,0.0,1.1,56,0.00,CLR,SCT,0.00,WeatherDisplay:10.37,2013-01-21 14:39:00,
2013-01-21 09:44:00,22.3,9.4,29.75,ENE,71,1.0,2.3,57,0.00,CLR,SCT,0.00,WeatherDisplay:10.37,2013-01-21 14:44:00,
2013-01-21 09:49:00,22.5,8.7,29.75,ENE,71,0.0,0.0,55,0.00,CLR,SCT,0.00,WeatherDisplay:10.37,2013-01-21 14:49:00,
2013-01-21 09:54:00,22.7,9.7,29.75,ENE,71,0.1,1.1,57,0.00,CLR,SCT,0.00,WeatherDisplay:10.37,2013-01-21 14:54:00,
2013-01-21 09:59:00,22.7,8.1,29.75,South,189,1.0,2.3,53,0.00,CLR,SCT,0.00,WeatherDisplay:10.37,2013-01-21 14:59:00,
2013-01-21 10:04:00,22.8,8.6,29.75,East,89,0.1,1.1,54,0.00,CLR,SCT,0.00,WeatherDisplay:10.37,2013-01-21 15:04:00,
2013-01-21 10:09:00,22.9,8.3,29.75,West,280,0.4,1.1,53,0.00,CLR,SCT,0.00,WeatherDisplay:10.37,2013-01-21 15:09:00,
2013-01-21 10:14:00,23.1,8.1,29.75,SSE,155,1.0,2.3,52,0.00,CLR,SCT,0.00,WeatherDisplay:10.37,2013-01-21 15:14:00,
2013-01-21 10:19:00,23.2,9.0,29.74,SW,234,0.1,1.1,54,0.00,CLR,SCT,0.00,WeatherDisplay:10.37,2013-01-21 15:19:00,
2013-01-21 10:24:00,23.4,7.9,29.75,SSE,153,1.5,4.6,51,0.00,CLR,SCT,0.00,WeatherDisplay:10.37,2013-01-21 15:24:00,
2013-01-21 10:29:00,23.4,7.9,29.74,SW,219,1.2,2.3,51,0.00,CLR,SCT,0.00,WeatherDisplay:10.37,2013-01-21 15:29:00,
2013-01-21 10:34:00,23.6,8.9,29.74,SE,130,0.8,3.5,53,0.00,CLR,SCT,0.00,WeatherDisplay:10.37,2013-01-21 15:34:00,
2013-01-21 10:39:00,23.9,8.8,29.74,SSE,159,2.3,4.0,52,0.00,CLR,SCT,0.00,WeatherDisplay:10.37,2013-01-21 15:39:00,
2013-01-21 10:44:00,23.7,8.6,29.74,NNE,30,1.3,3.5,52,0.00,CLR,SCT,0.00,WeatherDisplay:10.37,2013-01-21 15:44:00,
2013-01-21 10:49:00,23.8,8.7,29.73,East,82,1.2,3.5,52,0.00,CLR,SCT,0.00,WeatherDisplay:10.37,2013-01-21 15:49:00,
2013-01-21 10:54:00,24.0,9.3,29.73,SE,127,0.6,1.1,53,0.00,CLR,SCT,0.00,WeatherDisplay:10.37,2013-01-21 15:54:00,
2013-01-21 10:59:00,24.2,8.7,29.73,SE,132,1.1,4.0,51,0.00,CLR,SCT,0.00,WeatherDisplay:10.37,2013-01-21 15:59:00,
2013-01-21 11:04:00,23.8,7.8,29.73,SSE,167,1.1,2.3,50,0.00,CLR,SCT,0.00,WeatherDisplay:10.37,2013-01-21 16:04:00,
2013-01-21 11:09:00,23.7,8.2,29.72,South,175,0.3,1.1,51,0.00,CLR,SCT,0.00,WeatherDisplay:10.37,2013-01-21 16:09:00,
2013-01-21 11:14:00,23.9,8.8,29.72,West,259,1.2,2.3,52,0.00,CLR,SCT,0.00,WeatherDisplay:10.37,2013-01-21 16:14:00,
2013-01-21 11:19:00,24.1,9.0,29.72,SSW,197,2.3,4.6,52,0.00,CLR,SCT,0.00,WeatherDisplay:10.37,2013-01-21 16:19:00,
2013-01-21 11:24:00,24.0,9.3,29.71,SSW,211,1.8,4.6,53,0.00,CLR,SCT,0.00,WeatherDisplay:10.37,2013-01-21 16:24:00,
2013-01-21 11:29:00,24.0,9.7,29.70,SSW,208,1.8,3.5,54,0.00,CLR,SCT,0.00,WeatherDisplay:10.37,2013-01-21 16:29:00,
2013-01-21 11:34:00,24.1,9.4,29.69,SSE,163,2.6,4.6,53,0.00,CLR,SCT,0.00,WeatherDisplay:10.37,2013-01-21 16:34:00,
2013-01-21 11:39:00,24.1,9.8,29.69,West,281,1.6,4.6,54,0.00,CLR,SCT,0.00,WeatherDisplay:10.37,2013-01-21 16:39:00,
2013-01-21 11:44:00,24.3,10.0,29.69,SSE,163,1.2,3.5,54,0.00,CLR,SCT,0.00,WeatherDisplay:10.37,2013-01-21 16:44:00,
2013-01-21 11:49:00,24.3,10.0,29.68,West,263,3.2,5.0,54,0.00,CLR,SCT,0.00,WeatherDisplay:10.37,2013-01-21 16:49:00,
2013-01-21 11:54:00,24.3,10.0,29.68,SE,134,1.5,2.3,54,0.00,CLR,SCT,0.00,WeatherDisplay:10.37,2013-01-21 16:54:00,
2013-01-21 11:59:00,24.4,10.1,29.68,SSW,198,0.0,1.1,54,0.00,CLR,SCT,0.00,WeatherDisplay:10.37,2013-01-21 16:59:00,
2013-01-21 12:04:00,24.5,10.2,29.67,SSW,193,1.6,3.5,54,0.00,CLR,SCT,0.00,WeatherDisplay:10.37,2013-01-21 17:04:00,
2013-01-21 12:09:00,24.5,10.2,29.68,SSE,152,1.4,3.5,54,0.00,CLR,SCT,0.00,WeatherDisplay:10.37,2013-01-21 17:09:00,
2013-01-21 12:14:00,24.5,10.6,29.67,WSW,237,1.3,3.5,55,0.00,CLR,SCT,0.00,WeatherDisplay:10.37,2013-01-21 17:14:00,
2013-01-21 12:19:00,24.6,10.3,29.67,SW,218,1.0,3.5,54,0.00,CLR,SCT,0.00,WeatherDisplay:10.37,2013-01-21 17:19:00,
2013-01-21 12:24:00,24.8,10.5,29.66,SW,218,0.5,2.3,54,0.00,CLR,SCT,0.00,WeatherDisplay:10.37,2013-01-21 17:24:00,
2013-01-21 12:29:00,24.9,10.6,29.66,South,171,0.8,2.3,54,0.00,CLR,SCT,0.00,WeatherDisplay:10.37,2013-01-21 17:29:00,
2013-01-21 12:34:00,24.8,10.5,29.66,SE,132,0.1,1.1,54,0.00,CLR,SCT,0.00,WeatherDisplay:10.37,2013-01-21 17:34:00,
2013-01-21 12:39:00,24.9,11.0,29.66,SE,131,0.7,1.1,55,0.00,CLR,SCT,0.00,WeatherDisplay:10.37,2013-01-21 17:39:00,
2013-01-21 12:44:00,25.2,10.9,29.65,SSW,194,2.0,5.0,54,0.00,CLR,SCT,0.00,WeatherDisplay:10.37,2013-01-21 17:44:00,
2013-01-21 12:49:00,25.1,10.8,29.65,SE,136,0.8,2.3,54,0.00,CLR,SCT,0.00,WeatherDisplay:10.37,2013-01-21 17:49:00,
2013-01-21 12:54:00,25.2,11.3,29.65,South,185,1.7,2.3,55,0.00,CLR,SCT,0.00,WeatherDisplay:10.37,2013-01-21 17:54:00,
2013-01-21 12:59:00,25.2,11.3,29.65,SSW,195,1.2,3.5,55,0.00,CLR,SCT,0.00,WeatherDisplay:10.37,2013-01-21 17:59:00,
2013-01-21 13:04:00,25.0,11.1,29.65,SSE,159,1.4,3.5,55,0.00,CLR,SCT,0.00,WeatherDisplay:10.37,2013-01-21 18:04:00,
2013-01-21 13:09:00,25.0,11.5,29.64,SSE,157,0.7,2.3,56,0.00,CLR,SCT,0.00,WeatherDisplay:10.37,2013-01-21 18:09:00,
2013-01-21 13:14:00,25.0,11.5,29.64,SSW,207,0.8,2.3,56,0.00,CLR,SCT,0.00,WeatherDisplay:10.37,2013-01-21 18:14:00,
2013-01-21 13:19:00,25.0,11.1,29.64,SE,144,0.9,3.5,55,0.00,CLR,SCT,0.00,WeatherDisplay:10.37,2013-01-21 18:19:00,
2013-01-21 13:24:00,25.0,11.5,29.63,SE,144,2.5,3.5,56,0.00,CLR,SCT,0.00,WeatherDisplay:10.37,2013-01-21 18:24:00,
2013-01-21 13:29:00,25.0,11.5,29.62,SSE,147,1.8,4.0,56,0.00,CLR,SCT,0.00,WeatherDisplay:10.37,2013-01-21 18:29:00,
2013-01-21 13:34:00,25.2,12.5,29.62,South,183,1.9,4.0,58,0.00,CLR,SCT,0.00,WeatherDisplay:10.37,2013-01-21 18:34:00,
2013-01-21 13:39:00,25.2,11.7,29.62,SE,138,3.0,3.5,56,0.00,CLR,SCT,0.00,WeatherDisplay:10.37,2013-01-21 18:39:00,
2013-01-21 13:44:00,25.2,11.7,29.62,SSE,157,1.9,3.5,56,0.00,CLR,SCT,0.00,WeatherDisplay:10.37,2013-01-21 18:44:00,
2013-01-21 13:49:00,25.2,11.3,29.62,SE,131,1.2,3.5,55,0.00,CLR,SCT,0.00,WeatherDisplay:10.37,2013-01-21 18:49:00,
2013-01-21 13:54:00,25.1,11.6,29.62,South,169,3.6,4.6,56,0.00,CLR,SCT,0.00,WeatherDisplay:10.37,2013-01-21 18:54:00,
2013-01-21 13:59:00,25.2,12.1,29.62,SSE,161,3.0,3.5,57,0.00,CLR,SCT,0.00,WeatherDisplay:10.37,2013-01-21 18:59:00,
2013-01-21 14:04:00,25.2,12.5,29.62,SSE,162,1.0,4.0,58,0.00,CLR,SCT,0.00,WeatherDisplay:10.37,2013-01-21 19:04:00,
2013-01-21 14:09:00,25.2,12.1,29.62,SSE,156,2.3,4.0,57,0.00,CLR,SCT,0.00,WeatherDisplay:10.37,2013-01-21 19:09:00,
2013-01-21 14:14:00,25.2,12.1,29.62,South,172,3.4,4.6,57,0.00,CLR,SCT,0.00,WeatherDisplay:10.37,2013-01-21 19:14:00,
2013-01-21 14:19:00,25.2,12.1,29.62,SSE,151,2.4,5.0,57,0.00,CLR,SCT,0.00,WeatherDisplay:10.37,2013-01-21 19:19:00,
2013-01-21 14:24:00,25.2,12.9,29.61,ENE,76,2.7,4.0,59,0.00,CLR,SCT,0.00,WeatherDisplay:10.37,2013-01-21 19:24:00,
2013-01-21 14:29:00,25.3,13.7,29.62,SSE,147,2.4,3.5,61,0.00,CLR,SCT,0.00,WeatherDisplay:10.37,2013-01-21 19:29:00,
2013-01-21 14:34:00,25.2,13.6,29.62,SSE,156,2.2,4.0,61,0.00,CLR,SCT,0.00,WeatherDisplay:10.37,2013-01-21 19:34:00,
2013-01-21 14:39:00,25.1,13.5,29.62,South,184,3.9,5.8,61,0.00,CLR,SCT,0.00,WeatherDisplay:10.37,2013-01-21 19:39:00,
2013-01-21 14:44:00,24.9,13.7,29.61,SE,142,3.6,7.0,62,0.00,CLR,SCT,0.00,WeatherDisplay:10.37,2013-01-21 19:44:00,
2013-01-21 14:49:00,24.8,13.6,29.61,South,170,4.4,5.8,62,0.00,CLR,SCT,0.00,WeatherDisplay:10.37,2013-01-21 19:49:00,
2013-01-21 14:54:00,24.6,14.1,29.61,SSE,153,3.0,4.6,64,0.00,CLR,SCT,0.00,WeatherDisplay:10.37,2013-01-21 19:54:00,
2013-01-21 14:59:00,24.4,14.3,29.61,SSE,164,2.3,4.6,65,0.00,CLR,SCT,0.00,WeatherDisplay:10.37,2013-01-21 19:59:00,
2013-01-21 15:04:00,24.2,14.8,29.61,SE,146,4.1,5.8,67,0.00,CLR,SCT,0.00,WeatherDisplay:10.37,2013-01-21 20:04:00,
2013-01-21 15:09:00,24.0,15.6,29.61,SSE,148,0.8,2.3,70,0.00,CLR,SCT,0.00,WeatherDisplay:10.37,2013-01-21 20:09:00,
2013-01-21 15:14:00,24.0,15.6,29.61,SSE,150,1.3,3.5,70,0.00,CLR,SCT,0.00,WeatherDisplay:10.37,2013-01-21 20:14:00,
2013-01-21 15:19:00,23.9,15.9,29.60,SE,144,3.4,5.0,71,0.00,CLR,SCT,0.00,WeatherDisplay:10.37,2013-01-21 20:19:00,
2013-01-21 15:24:00,23.8,16.1,29.60,South,186,1.7,5.0,72,0.00,CLR,SCT,0.00,WeatherDisplay:10.37,2013-01-21 20:24:00,
2013-01-21 15:29:00,23.8,16.1,29.60,ESE,103,0.7,3.5,72,0.00,CLR,SCT,0.00,WeatherDisplay:10.37,2013-01-21 20:29:00,
2013-01-21 15:34:00,23.8,16.7,29.60,SE,134,1.3,2.3,74,0.00,CLR,SCT,0.00,WeatherDisplay:10.37,2013-01-21 20:34:00,
2013-01-21 15:39:00,23.6,16.5,29.60,ESE,121,3.7,4.0,74,0.00,CLR,SCT,0.00,WeatherDisplay:10.37,2013-01-21 20:39:00,
2013-01-21 15:44:00,23.5,16.7,29.59,SE,139,2.8,4.6,75,0.00,CLR,SCT,0.00,WeatherDisplay:10.37,2013-01-21 20:44:00,
2013-01-21 15:49:00,23.4,17.3,29.59,South,169,2.2,3.5,77,0.00,CLR,SCT,0.00,WeatherDisplay:10.37,2013-01-21 20:49:00,
2013-01-21 15:54:00,23.2,17.4,29.59,SSE,166,2.8,4.0,78,0.00,CLR,SCT,0.00,WeatherDisplay:10.37,2013-01-21 20:54:00,
2013-01-21 15:59:00,23.1,17.6,29.59,SSE,161,1.2,3.5,79,0.00,CLR,SCT,0.00,WeatherDisplay:10.37,2013-01-21 20:59:00,
2013-01-21 16:04:00,23.0,18.0,29.59,SSE,161,0.7,2.3,81,0.00,CLR,SCT,0.00,WeatherDisplay:10.37,2013-01-21 21:04:00,
2013-01-21 16:09:00,22.9,18.2,29.58,SE,132,2.6,4.0,82,0.00,CLR,SCT,0.00,WeatherDisplay:10.37,2013-01-21 21:09:00,
2013-01-21 16:14:00,22.7,18.3,29.58,SE,135,1.9,3.5,83,0.00,CLR,SCT,0.00,WeatherDisplay:10.37,2013-01-21 21:14:00,
2013-01-21 16:19:00,22.5,18.7,29.58,East,95,0.1,1.1,85,0.00,CLR,SCT,0.00,WeatherDisplay:10.37,2013-01-21 21:19:00,
2013-01-21 16:24:00,22.3,18.7,29.58,ESE,119,0.8,2.0,86,0.00,CLR,SCT,0.00,WeatherDisplay:10.37,2013-01-21 21:24:00,
2013-01-21 16:29:00,22.2,18.9,29.58,SSE,149,0.8,2.3,87,0.00,CLR,SCT,0.00,WeatherDisplay:10.37,2013-01-21 21:29:00,
2013-01-21 16:34:00,22.2,18.9,29.58,SE,136,0.9,2.3,87,0.00,CLR,SCT,0.00,WeatherDisplay:10.37,2013-01-21 21:34:00,
2013-01-21 16:39:00,22.2,18.9,29.58,SE,130,2.0,3.5,87,0.00,CLR,SCT,0.00,WeatherDisplay:10.37,2013-01-21 21:39:00,
2013-01-21 16:44:00,22.3,19.0,29.58,SE,124,0.1,1.1,87,0.00,CLR,SCT,0.00,WeatherDisplay:10.37,2013-01-21 21:44:00,
2013-01-21 16:49:00,22.3,19.0,29.58,SE,135,1.1,3.5,87,0.00,CLR,SCT,0.00,WeatherDisplay:10.37,2013-01-21 21:49:00,
2013-01-21 16:54:00,22.3,19.0,29.58,SE,135,0.9,2.3,87,0.00,CLR,SCT,0.00,WeatherDisplay:10.37,2013-01-21 21:54:00,
2013-01-21 16:59:00,22.3,19.3,29.58,ESE,113,1.2,2.3,88,0.00,CLR,SCT,0.00,WeatherDisplay:10.37,2013-01-21 21:59:00,
2013-01-21 17:04:00,22.3,19.3,29.58,SE,125,1.4,3.5,88,0.00,CLR,SCT,0.00,WeatherDisplay:10.37,2013-01-21 22:04:00,
2013-01-21 17:09:00,22.4,19.4,29.58,SE,130,1.5,2.3,88,0.00,CLR,SCT,0.00,WeatherDisplay:10.37,2013-01-21 22:09:00,
2013-01-21 17:14:00,22.3,19.6,29.58,SE,138,1.6,3.5,89,0.00,CLR,SCT,0.00,WeatherDisplay:10.37,2013-01-21 22:14:00,
2013-01-21 17:19:00,22.3,19.6,29.58,SE,144,1.9,4.0,89,0.00,CLR,SCT,0.00,WeatherDisplay:10.37,2013-01-21 22:19:00,
2013-01-21 17:24:00,22.3,19.6,29.58,SE,139,1.2,3.5,89,0.00,CLR,SCT,0.00,WeatherDisplay:10.37,2013-01-21 22:24:00,
2013-01-21 17:29:00,22.4,19.6,29.57,SE,139,0.4,1.1,89,0.00,CLR,SCT,0.00,WeatherDisplay:10.37,2013-01-21 22:29:00,
2013-01-21 17:34:00,22.4,19.6,29.58,SE,139,0.7,2.0,89,0.00,CLR,SCT,0.00,WeatherDisplay:10.37,2013-01-21 22:34:00,
2013-01-21 17:39:00,22.3,19.8,29.57,SE,139,1.1,2.3,90,0.00,CLR,SCT,0.00,WeatherDisplay:10.37,2013-01-21 22:39:00,
2013-01-21 17:44:00,22.3,19.8,29.58,SE,139,0.2,1.1,90,0.00,CLR,SCT,0.00,WeatherDisplay:10.37,2013-01-21 22:44:00,
2013-01-21 17:49:00,22.3,19.8,29.57,SE,138,0.8,2.3,90,0.00,CLR,SCT,0.00,WeatherDisplay:10.37,2013-01-21 22:49:00,
2013-01-21 17:54:00,22.4,19.9,29.57,SE,138,0.1,1.0,90,0.00,CLR,SCT,0.00,WeatherDisplay:10.37,2013-01-21 22:54:00,
2013-01-21 17:59:00,22.4,19.9,29.57,East,96,0.4,2.3,90,0.00,CLR,SCT,0.00,WeatherDisplay:10.37,2013-01-21 22:59:00,
2013-01-21 18:04:00,22.3,19.8,29.57,East,96,0.1,1.0,90,0.00,CLR,SCT,0.00,WeatherDisplay:10.37,2013-01-21 23:04:00,
2013-01-21 18:09:00,22.3,19.8,29.57,East,96,0.0,0.0,90,0.00,CLR,SCT,0.00,WeatherDisplay:10.37,2013-01-21 23:09:00,
2013-01-21 18:14:00,22.4,19.9,29.57,East,96,0.0,1.1,90,0.00,CLR,SCT,0.00,WeatherDisplay:10.37,2013-01-21 23:14:00,
2013-01-21 18:19:00,22.4,19.9,29.57,East,96,0.2,1.1,90,0.00,CLR,SCT,0.00,WeatherDisplay:10.37,2013-01-21 23:19:00,
2013-01-21 18:24:00,22.4,19.9,29.57,East,96,0.4,1.1,90,0.00,CLR,SCT,0.00,WeatherDisplay:10.37,2013-01-21 23:24:00,
2013-01-21 18:29:00,22.4,20.2,29.57,East,96,0.0,0.0,91,0.00,CLR,SCT,0.00,WeatherDisplay:10.37,2013-01-21 23:29:00,
2013-01-21 18:34:00,22.4,20.2,29.57,East,96,0.0,0.0,91,0.00,CLR,SCT,0.00,WeatherDisplay:10.37,2013-01-21 23:34:00,
2013-01-21 18:39:00,22.4,20.2,29.57,East,96,0.0,1.1,91,0.00,CLR,SCT,0.00,WeatherDisplay:10.37,2013-01-21 23:39:00,
2013-01-21 18:44:00,22.3,20.1,29.57,East,96,0.0,0.0,91,0.00,CLR,SCT,0.00,WeatherDisplay:10.37,2013-01-21 23:44:00,
2013-01-21 18:49:00,22.3,20.1,29.57,East,96,0.0,0.0,91,0.00,CLR,SCT,0.00,WeatherDisplay:10.37,2013-01-21 23:49:00,
2013-01-21 18:54:00,22.3,20.1,29.57,East,96,0.0,0.0,91,0.00,CLR,SCT,0.00,WeatherDisplay:10.37,2013-01-21 23:54:00,
2013-01-21 18:59:00,22.3,20.1,29.57,East,96,0.0,0.0,91,0.00,CLR,SCT,0.00,WeatherDisplay:10.37,2013-01-21 23:59:00,
2013-01-21 19:04:00,22.3,20.1,29.58,East,96,0.0,0.0,91,0.00,CLR,SCT,0.00,WeatherDisplay:10.37,2013-01-22 00:04:00,
2013-01-21 19:09:00,22.4,20.4,29.58,East,96,0.0,0.0,92,0.00,CLR,SCT,0.00,WeatherDisplay:10.37,2013-01-22 00:09:00,
2013-01-21 19:14:00,22.5,20.5,29.57,East,96,0.0,0.0,92,0.00,CLR,SCT,0.00,WeatherDisplay:10.37,2013-01-22 00:14:00,
2013-01-21 19:19:00,22.5,20.5,29.58,East,96,0.0,0.0,92,0.00,CLR,SCT,0.00,WeatherDisplay:10.37,2013-01-22 00:19:00,
2013-01-21 19:24:00,22.5,20.5,29.58,East,96,0.0,0.0,92,0.00,CLR,SCT,0.00,WeatherDisplay:10.37,2013-01-22 00:24:00,
2013-01-21 19:29:00,22.6,20.6,29.58,East,96,0.0,0.0,92,0.00,CLR,SCT,0.00,WeatherDisplay:10.37,2013-01-22 00:29:00,
2013-01-21 19:34:00,22.6,20.6,29.57,East,96,0.0,0.0,92,0.00,CLR,SCT,0.00,WeatherDisplay:10.37,2013-01-22 00:34:00,
2013-01-21 19:39:00,22.7,20.7,29.58,East,96,0.0,0.0,92,0.00,CLR,SCT,0.00,WeatherDisplay:10.37,2013-01-22 00:39:00,
2013-01-21 19:44:00,22.7,21.0,29.58,East,96,0.0,0.0,93,0.00,CLR,SCT,0.00,WeatherDisplay:10.37,2013-01-22 00:44:00,
2013-01-21 19:49:00,22.7,21.0,29.58,East,96,0.0,0.0,93,0.00,CLR,SCT,0.00,WeatherDisplay:10.37,2013-01-22 00:49:00,
2013-01-21 19:54:00,22.6,20.9,29.58,East,96,0.0,0.0,93,0.00,CLR,SCT,0.00,WeatherDisplay:10.37,2013-01-22 00:54:00,
2013-01-21 19:59:00,22.6,20.9,29.57,East,96,0.0,0.0,93,0.00,CLR,SCT,0.00,WeatherDisplay:10.37,2013-01-22 00:59:00,
2013-01-21 20:04:00,22.5,20.8,29.57,East,96,0.0,0.0,93,0.00,CLR,SCT,0.00,WeatherDisplay:10.37,2013-01-22 01:04:00,
2013-01-21 20:09:00,22.4,20.7,29.57,East,96,0.0,0.0,93,0.00,CLR,SCT,0.00,WeatherDisplay:10.37,2013-01-22 01:09:00,
2013-01-21 20:14:00,22.3,20.6,29.57,East,96,0.0,0.0,93,0.00,CLR,SCT,0.00,WeatherDisplay:10.37,2013-01-22 01:14:00,
2013-01-21 20:19:00,22.1,20.4,29.56,East,96,0.0,0.0,93,0.00,CLR,SCT,0.00,WeatherDisplay:10.37,2013-01-22 01:19:00,
2013-01-21 20:24:00,22.0,20.3,29.55,East,96,0.0,0.0,93,0.00,CLR,SCT,0.00,WeatherDisplay:10.37,2013-01-22 01:24:00,
2013-01-21 20:29:00,21.7,20.0,29.55,East,96,0.0,0.0,93,0.00,CLR,SCT,0.00,WeatherDisplay:10.37,2013-01-22 01:29:00,
2013-01-21 20:34:00,21.5,19.8,29.55,East,96,0.1,1.1,93,0.00,CLR,SCT,0.00,WeatherDisplay:10.37,2013-01-22 01:34:00,
2013-01-21 20:39:00,21.4,19.7,29.55,East,96,0.0,0.0,93,0.00,CLR,SCT,0.00,WeatherDisplay:10.37,2013-01-22 01:39:00,
2013-01-21 20:44:00,21.2,19.5,29.56,East,96,0.0,1.1,93,0.00,CLR,SCT,0.00,WeatherDisplay:10.37,2013-01-22 01:44:00,
2013-01-21 20:49:00,21.1,19.4,29.56,East,96,0.0,0.0,93,0.00,CLR,SCT,0.00,WeatherDisplay:10.37,2013-01-22 01:49:00,
2013-01-21 20:54:00,21.1,19.4,29.55,East,96,0.0,0.0,93,0.00,CLR,SCT,0.00,WeatherDisplay:10.37,2013-01-22 01:54:00,
2013-01-21 20:59:00,21.0,19.3,29.55,East,96,0.0,0.0,93,0.00,CLR,SCT,0.00,WeatherDisplay:10.37,2013-01-22 01:59:00,
2013-01-21 21:04:00,21.0,19.3,29.55,East,98,0.0,0.0,93,0.00,CLR,SCT,0.00,WeatherDisplay:10.37,2013-01-22 02:04:00,
2013-01-21 21:09:00,21.0,19.3,29.54,East,98,0.0,0.0,93,0.00,CLR,SCT,0.00,WeatherDisplay:10.37,2013-01-22 02:09:00,
2013-01-21 21:14:00,21.0,19.3,29.54,East,98,0.0,0.0,93,0.00,CLR,SCT,0.00,WeatherDisplay:10.37,2013-01-22 02:14:00,
2013-01-21 21:19:00,21.0,19.3,29.54,East,98,0.0,0.0,93,0.00,CLR,SCT,0.00,WeatherDisplay:10.37,2013-01-22 02:19:00,
2013-01-21 21:24:00,20.9,19.2,29.53,East,98,0.0,0.0,93,0.00,CLR,SCT,0.00,WeatherDisplay:10.37,2013-01-22 02:24:00,
2013-01-21 21:29:00,20.8,19.1,29.53,East,87,0.0,0.0,93,0.00,CLR,SCT,0.00,WeatherDisplay:10.37,2013-01-22 02:29:00,
2013-01-21 21:34:00,20.8,19.1,29.53,East,87,0.0,0.0,93,0.00,CLR,SCT,0.00,WeatherDisplay:10.37,2013-01-22 02:34:00,
2013-01-21 21:39:00,20.7,19.0,29.53,East,87,0.0,0.0,93,0.00,CLR,SCT,0.00,WeatherDisplay:10.37,2013-01-22 02:39:00,
2013-01-21 21:44:00,20.6,18.9,29.53,East,87,0.0,0.0,93,0.00,CLR,SCT,0.00,WeatherDisplay:10.37,2013-01-22 02:44:00,
2013-01-21 21:49:00,20.6,18.9,29.53,East,87,0.0,0.0,93,0.00,CLR,SCT,0.00,WeatherDisplay:10.37,2013-01-22 02:49:00,
2013-01-21 21:54:00,20.5,18.8,29.53,East,87,0.0,0.0,93,0.00,CLR,SCT,0.00,WeatherDisplay:10.37,2013-01-22 02:54:00,
2013-01-21 21:59:00,20.5,18.8,29.53,East,87,0.0,0.0,93,0.00,CLR,SCT,0.00,WeatherDisplay:10.37,2013-01-22 02:59:00,
2013-01-21 22:04:00,20.4,18.7,29.52,East,87,0.0,0.0,93,0.00,CLR,SCT,0.00,WeatherDisplay:10.37,2013-01-22 03:04:00,
2013-01-21 22:09:00,20.4,18.7,29.51,East,87,0.0,0.0,93,0.00,CLR,SCT,0.00,WeatherDisplay:10.37,2013-01-22 03:09:00,
2013-01-21 22:14:00,20.3,18.6,29.51,East,87,0.0,0.0,93,0.00,CLR,SCT,0.00,WeatherDisplay:10.37,2013-01-22 03:14:00,
2013-01-21 22:19:00,20.3,18.6,29.51,East,87,0.0,0.0,93,0.00,CLR,SCT,0.00,WeatherDisplay:10.37,2013-01-22 03:19:00,
2013-01-21 22:24:00,20.2,18.5,29.51,East,87,0.0,0.0,93,0.00,CLR,SCT,0.00,WeatherDisplay:10.37,2013-01-22 03:24:00,
2013-01-21 22:29:00,20.1,18.4,29.51,East,87,0.0,0.0,93,0.00,CLR,SCT,0.00,WeatherDisplay:10.37,2013-01-22 03:29:00,
2013-01-21 22:34:00,19.9,18.0,29.51,East,87,0.0,0.0,92,0.00,CLR,SCT,0.00,WeatherDisplay:10.37,2013-01-22 03:34:00,
2013-01-21 22:39:00,19.7,17.8,29.51,East,87,0.0,0.0,92,0.00,CLR,SCT,0.00,WeatherDisplay:10.37,2013-01-22 03:39:00,
2013-01-21 22:44:00,19.5,17.6,29.51,East,87,0.0,0.0,92,0.00,CLR,SCT,0.00,WeatherDisplay:10.37,2013-01-22 03:44:00,
2013-01-21 22:49:00,19.4,17.5,29.51,East,87,0.0,0.0,92,0.00,CLR,SCT,0.00,WeatherDisplay:10.37,2013-01-22 03:49:00,
2013-01-21 22:54:00,19.3,17.6,29.51,East,87,0.0,0.0,93,0.00,CLR,SCT,0.00,WeatherDisplay:10.37,2013-01-22 03:54:00,
2013-01-21 22:59:00,19.2,17.5,29.50,East,87,0.0,0.0,93,0.00,CLR,SCT,0.00,WeatherDisplay:10.37,2013-01-22 03:59:00,
2013-01-21 23:04:00,19.2,17.5,29.49,East,87,0.0,0.0,93,0.00,CLR,SCT,0.00,WeatherDisplay:10.37,2013-01-22 04:04:00,
2013-01-21 23:09:00,19.3,17.6,29.49,East,87,0.0,0.0,93,0.00,CLR,SCT,0.00,WeatherDisplay:10.37,2013-01-22 04:09:00,
2013-01-21 23:14:00,19.2,17.5,29.49,East,87,0.0,0.0,93,0.00,CLR,SCT,0.00,WeatherDisplay:10.37,2013-01-22 04:14:00,
2013-01-21 23:19:00,19.1,17.4,29.49,East,87,0.0,0.0,93,0.00,CLR,SCT,0.00,WeatherDisplay:10.37,2013-01-22 04:19:00,
2013-01-21 23:24:00,19.1,17.4,29.49,East,87,0.0,0.0,93,0.00,CLR,SCT,0.00,WeatherDisplay:10.37,2013-01-22 04:24:00,
2013-01-21 23:29:00,19.1,17.2,29.48,ESE,119,0.7,1.1,92,0.00,CLR,SCT,0.00,WeatherDisplay:10.37,2013-01-22 04:29:00,
2013-01-21 23:34:00,19.1,17.2,29.48,ESE,119,0.1,1.1,92,0.00,CLR,SCT,0.00,WeatherDisplay:10.37,2013-01-22 04:34:00,
2013-01-21 23:39:00,19.3,17.1,29.48,South,183,0.8,2.3,91,0.00,CLR,SCT,0.00,WeatherDisplay:10.37,2013-01-22 04:39:00,
2013-01-21 23:44:00,19.3,17.1,29.48,South,182,0.0,1.1,91,0.00,CLR,SCT,0.00,WeatherDisplay:10.37,2013-01-22 04:44:00,
2013-01-21 23:49:00,19.4,16.9,29.48,SSE,162,0.2,1.1,90,0.00,CLR,SCT,0.00,WeatherDisplay:10.37,2013-01-22 04:49:00,
2013-01-21 23:54:00,19.7,17.2,29.47,South,175,0.0,0.0,90,0.00,CLR,SCT,0.00,WeatherDisplay:10.37,2013-01-22 04:54:00,
2013-01-21 23:59:00,19.7,17.0,29.48,SSW,197,0.0,1.0,89,0.00,CLR,SCT,0.00,WeatherDisplay:10.37,2013-01-22 04:59:00,